Regional Weather Roundup
Issued by NWS

Home | Current Version | Previous Version | Text Only | Print | Product List | Glossary Off
Versions: 1 2 3 4 5 6 7 8 9 10 11 12 13 14 15 16 17 18 19 20 21 22 23 24 25 26 27 28 29 30 31 32 33 34 35 36 37 38 39 40 41 42 43 44 45 46 47 48 49 50

245
ASUS43 KLSX 241159
RWRMO

WEATHER SUMMARY FOR MISSOURI
NATIONAL WEATHER SERVICE SPRINGFIELD MO
700 AM CDT FRI MAR 24 2017

NOTE: "FAIR" INDICATES FEW OR NO CLOUDS BELOW 12,000 FEET WITH NO
       SIGNIFICANT WEATHER AND/OR OBSTRUCTIONS TO VISIBILITY.
       CURRENT SKY AND/OR WEATHER CONDITIONS ARE NOT AVAILABLE FOR
       CHILLICOTHE AND FARMINGTON.

MOZ001>031-035>038-043-044-053-054-241300-
...NORTHERN AND WESTERN MISSOURI...

CITY           SKY/WX    TMP DP  RH WIND       PRES   REMARKS
KANSAS CTY INT CLOUDY    68  44  42 S22G30    29.78R
6HR MIN TEMP:  65; 6HR MAX TEMP:  69;

KANSAS C DTWN  CLOUDY    70  43  37 S18G25    29.78R
6HR MIN TEMP:  67; 6HR MAX TEMP:  71;

LEE`S SUMMIT   CLOUDY    65  46  50 S14       29.80S
6HR MIN TEMP:  64; 6HR MAX TEMP:  69;

ST JOSEPH      CLOUDY    68  49  50 S12       29.78R
6HR MIN TEMP:  62; 6HR MAX TEMP:  69;

CHILLICOTHE      N/A     61  48  62 S9        29.83S
6HR MIN TEMP:  53; 6HR MAX TEMP:  67;

KIRKSVILLE     CLEAR     61  50  67 S14       29.86S
6HR MIN TEMP:  50; 6HR MAX TEMP:  64;


$$
MOZ066>068-077>081-088>096-101>105-241300-
...SOUTHWEST MISSOURI...

CITY           SKY/WX    TMP DP  RH WIND       PRES   REMARKS
SPRINGFIELD    CLOUDY    63  45  51 S14       29.90F
6HR MIN TEMP:  57; 6HR MAX TEMP:  67;

JOPLIN         CLEAR     67  38  34 S20G30    29.84S
6HR MIN TEMP:  65; 6HR MAX TEMP:  71;

BRANSON        MOCLDY    66  48  52 S10G17    29.98S

$$
MOZ032>034-039>042-045>050-055>058-069>072-241300-
...CENTRAL MISSOURI...

CITY           SKY/WX    TMP DP  RH WIND       PRES   REMARKS
COLUMBIA       CLEAR     63  48  58 S13       29.92S
6HR MIN TEMP:  61; 6HR MAX TEMP:  67;

JEFFERSON CITY CLEAR     68  47  46 SE12      29.92F
6HR MIN TEMP:  68; 6HR MAX TEMP:  72;

ROLLA          CLEAR     62  49  62 S13       29.96R
6HR MIN TEMP:  61; 6HR MAX TEMP:  68;

SEDALIA        CLEAR     65  47  52 S16       29.86F
6HR MIN TEMP:  63; 6HR MAX TEMP:  69;

WARRENSBURG    CLEAR     63  45  51 S8        29.83R
OSAGE BEACH    CLEAR    N/A N/A N/A S12       29.93F

$$
MOZ051-052-059>065-241300-
...EAST CENTRAL MISSOURI...

CITY           SKY/WX    TMP DP  RH WIND       PRES   REMARKS
ST LOUIS INTL  PTCLDY    57  49  74 CALM      30.02R
6HR MIN TEMP:  54; 6HR MAX TEMP:  63;

SPIRIT OF STL  PTCLDY    64  51  62 SW6       29.99R
6HR MIN TEMP:  54; 6HR MAX TEMP:  66;

ST CHARLES     CLEAR     45  43  93 E8        30.00R
6HR MIN TEMP:  45; 6HR MAX TEMP:  50;


$$
MOZ072>076-082>087-097>100-106>115-241300-
...SOUTH CENTRAL AND SOUTHEAST MISSOURI...

CITY           SKY/WX    TMP DP  RH WIND       PRES   REMARKS
CAPE GIRARDEAU PTCLDY    62  54  74 S14       30.06R
6HR MIN TEMP:  60; 6HR MAX TEMP:  64;

POPLAR BLUFF   CLOUDY    63  55  75 S13       30.06R
6HR MIN TEMP:  62; 6HR MAX TEMP:  64;

WEST PLAINS    PTCLDY    61  50  67 S7        30.04R
6HR MIN TEMP:  60; 6HR MAX TEMP:  64;


$$




USA.gov is the U.S. government's official web portal to all federal, state and local government web resources and services.